Location: Lussas
(44.6119°N, 4.4726°E)
Time: 15:12:27
(UTC+00:00)

Cosmos 1862 - Pass Details

Date: 26 November 2020
Orbit: 537 x 556 km, 82.5° (Epoch: 27 January)

Event Time Altitude Azimuth Distance (km) Brightness Sun altitude
Rises 05:37:23 0° 183° (S) 2,717 7.0 -13.2°
Reaches altitude 10° 05:39:32 10° 182° (S) 1,830 6.2 -12.9°
Maximum altitude 05:43:34 77° 97° (E) 577 3.5 -12.2°
Drops below altitude 10° 05:47:38 10° 12° (NNE) 1,850 5.9 -11.5°
Sets 05:49:49 0° 11° (N) 2,750 6.8 -11.1°
